Weather History for Big Bear City, CA

Change the Weather History Date:

Tuesday, January 22, 2013

  Actual Average (KBUO) Record (KBUO)
Temperature  
Mean Temperature 34 °F -  
Max Temperature 57 °F 58 °F 64 °F (1998)
Min Temperature 12 °F 40 °F 37 °F (1998)
Degree Days  
Heating Degree Days 30    
Moisture  
Dew Point 8 °F    
Average Humidity 45    
Maximum Humidity 73    
Minimum Humidity 8    
Precipitation  
Precipitation 0.00 in - - ()
Sea Level Pressure  
Sea Level Pressure 30.27 in    
Wind  
Wind Speed 1 mph (WSW)    
Max Wind Speed 8 mph    
Max Gust Speed -    
Visibility 10 miles    
Events      
Averages and records for this station are not official NWS values.
T = Trace of Precipitation, MM = Missing Value Source: NWS Daily Summary

Daily Weather History Graph

Daily Weather History Graph

Search for Another Location

Airport:

Trip Planner

Search our weather history database for the weather conditions in past years. The results will help you decide how hot, cold, wet, or windy it might be!

Date:

Astronomy

Jan. 22, 2013 Rise Set
Actual Time 6:50 AM PST 5:07 PM PST
Civil Twilight 6:23 AM PST 5:34 PM PST
Nautical Twilight 5:53 AM PST 6:05 PM PST
Astronomical Twilight 5:23 AM PST 6:35 PM PST
Moon 1:36 PM PST (1/22) 3:14 AM PST (1/22)
Length of Visible Light 11h 11m
Length of Day
10h 17m
Waxing Gibbous, 83% of the Moon is Illuminated
Jan 22
Waxing Gibbous
Jan 26
Full
Feb 3
Last Quarter
Feb 9
New
Feb 17
First Quarter

Hourly Weather History & Observations

Time (PST) Temp. Windchill Dew Point Humidity Pressure Visibility Wind Dir Wind Speed Gust Speed Precip Events Conditions
12:15 AM 17.6 °F - 5.0 °F 58% 30.29 in 10.0 mi Calm Calm - N/A   Clear
12:35 AM 17.6 °F - 5.0 °F 58% 30.28 in 10.0 mi Calm Calm - N/A   Clear
12:55 AM 17.6 °F - 5.0 °F 58% 30.28 in 10.0 mi Calm Calm - N/A   Clear
1:15 AM 15.8 °F - 5.0 °F 62% 30.28 in 10.0 mi Calm Calm - N/A   Clear
1:35 AM 15.8 °F - 5.0 °F 62% 30.29 in 10.0 mi Calm Calm - N/A   Clear
1:55 AM 15.8 °F - 5.0 °F 62% 30.28 in 10.0 mi Calm Calm - N/A   Clear
2:15 AM 15.8 °F - 5.0 °F 62% 30.28 in 10.0 mi Calm Calm - N/A   Clear
2:35 AM 14.0 °F - 5.0 °F 67% 30.27 in 10.0 mi Calm Calm - N/A   Clear
2:55 AM 14.0 °F - 3.2 °F 62% 30.27 in 10.0 mi Calm Calm - N/A   Clear
3:15 AM 14.0 °F - 3.2 °F 62% 30.26 in 10.0 mi Calm Calm - N/A   Clear
3:35 AM 14.0 °F - 3.2 °F 62% 30.26 in 10.0 mi Calm Calm - N/A   Clear
3:55 AM 12.2 °F - 3.2 °F 67% 30.26 in 10.0 mi Calm Calm - N/A   Clear
4:15 AM 12.2 °F - 3.2 °F 67% 30.26 in 10.0 mi Calm Calm - N/A   Clear
4:35 AM 12.2 °F - 3.2 °F 67% 30.26 in 10.0 mi Calm Calm - N/A   Clear
4:55 AM 14.0 °F - 3.2 °F 62% 30.26 in 10.0 mi Calm Calm - N/A   Clear
5:15 AM 12.2 °F - 3.2 °F 67% 30.26 in 10.0 mi Calm Calm - N/A   Clear
5:35 AM 12.2 °F - 3.2 °F 67% 30.26 in 10.0 mi Calm Calm - N/A   Clear
5:55 AM 12.2 °F - 3.2 °F 67% 30.26 in 10.0 mi Calm Calm - N/A   Clear
6:15 AM 12.2 °F - 3.2 °F 67% 30.26 in 10.0 mi Calm Calm - N/A   Clear
6:35 AM 12.2 °F - 5.0 °F 73% 30.27 in 10.0 mi Calm Calm - N/A   Clear
6:55 AM 12.2 °F - 5.0 °F 73% 30.27 in 10.0 mi Calm Calm - N/A   Clear
7:15 AM 12.2 °F 6.1 °F 3.2 °F 67% 30.27 in 10.0 mi WSW 3.5 mph - N/A   Clear
7:35 AM 14.0 °F - 3.2 °F 62% 30.28 in 10.0 mi Calm Calm - N/A   Clear
7:55 AM 17.6 °F - 5.0 °F 58% 30.28 in 10.0 mi Calm Calm - N/A   Clear
8:15 AM 19.4 °F - 5.0 °F 54% 30.28 in 10.0 mi Calm Calm - N/A   Clear
8:35 AM 23.0 °F - 8.6 °F 54% 30.28 in 10.0 mi Calm Calm - N/A   Clear
8:55 AM 28.4 °F - 8.6 °F 43% 30.29 in 10.0 mi Calm Calm - N/A   Clear
9:15 AM 32.0 °F - 5.0 °F 32% 30.28 in 10.0 mi Calm Calm - N/A   Clear
9:35 AM 35.6 °F - 5.0 °F 28% 30.29 in 10.0 mi Calm Calm - N/A   Clear
9:55 AM 42.8 °F 41.1 °F 5.0 °F 21% 30.29 in 10.0 mi West 3.5 mph - N/A   Clear
10:15 AM 41.0 °F 37.1 °F 14.0 °F 33% 30.29 in 10.0 mi West 5.8 mph - N/A   Clear
10:35 AM 44.6 °F 42.2 °F 10.4 °F 25% 30.29 in 10.0 mi West 4.6 mph - N/A   Clear
10:55 AM 51.8 °F - -0.4 °F 12% 30.28 in 10.0 mi WSW 5.8 mph - N/A   Clear
11:15 AM 53.6 °F - 1.4 °F 12% 30.27 in 10.0 mi West 6.9 mph - N/A   Clear
11:35 AM 55.4 °F - 1.4 °F 11% 30.26 in 10.0 mi West 8.1 mph - N/A   Clear
11:55 AM 55.4 °F - 5.0 °F 13% 30.25 in 10.0 mi West 8.1 mph - N/A   Clear
12:15 PM 55.4 °F - 3.2 °F 12% 30.24 in 10.0 mi West 5.8 mph - N/A   Clear
12:35 PM 57.2 °F - 5.0 °F 12% 30.24 in 10.0 mi West 8.1 mph - N/A   Clear
12:55 PM 57.2 °F - 6.8 °F 13% 30.23 in 10.0 mi West 5.8 mph - N/A   Clear
1:15 PM 57.2 °F - -5.8 °F 8% 30.23 in 10.0 mi East 8.1 mph - N/A   Clear
1:35 PM 55.4 °F - -4.0 °F 9% 30.23 in 10.0 mi ENE 6.9 mph - N/A   Clear
1:55 PM 55.4 °F - -4.0 °F 9% 30.23 in 10.0 mi ENE 4.6 mph - N/A   Clear
2:15 PM 57.2 °F - 1.4 °F 10% 30.23 in 10.0 mi Calm Calm - N/A   Clear
2:35 PM 55.4 °F - 8.6 °F 15% 30.23 in 10.0 mi West 4.6 mph - N/A   Clear
2:55 PM 55.4 °F - 8.6 °F 15% 30.23 in 10.0 mi SSW 4.6 mph - N/A   Clear
3:15 PM 53.6 °F - 6.8 °F 15% 30.23 in 10.0 mi SSW 3.5 mph - N/A   Clear
3:35 PM 53.6 °F - 6.8 °F 15% 30.23 in 10.0 mi SSW 4.6 mph - N/A   Clear
3:55 PM 53.6 °F - 5.0 °F 14% 30.23 in 10.0 mi SW 4.6 mph - N/A   Clear
4:15 PM 51.8 °F - 5.0 °F 15% 30.23 in 10.0 mi SSW 4.6 mph - N/A   Clear
4:35 PM 50.0 °F - 8.6 °F 19% 30.24 in 10.0 mi SW 3.5 mph - N/A   Clear
4:55 PM 44.6 °F 43.1 °F 12.2 °F 27% 30.24 in 10.0 mi SSW 3.5 mph - N/A   Clear
5:15 PM 41.0 °F - 12.2 °F 31% 30.23 in 10.0 mi Calm Calm - N/A   Clear
5:35 PM 37.4 °F - 14.0 °F 38% 30.24 in 10.0 mi Calm Calm - N/A   Clear
5:55 PM 35.6 °F - 15.8 °F 44% 30.25 in 10.0 mi Calm Calm - N/A   Clear
6:15 PM 33.8 °F - 14.0 °F 44% 30.25 in 10.0 mi Calm Calm - N/A   Clear
6:35 PM 32.0 °F - 15.8 °F 51% 30.25 in 10.0 mi Calm Calm - N/A   Clear
6:55 PM 32.0 °F - 14.0 °F 48% 30.25 in 10.0 mi Calm Calm - N/A   Clear
7:15 PM 32.0 °F - 14.0 °F 48% 30.26 in 10.0 mi Calm Calm - N/A   Clear
7:35 PM 32.0 °F - 15.8 °F 51% 30.26 in 10.0 mi Calm Calm - N/A   Clear
7:55 PM 30.2 °F - 15.8 °F 55% 30.27 in 10.0 mi Calm Calm - N/A   Clear
8:15 PM 30.2 °F - 15.8 °F 55% 30.28 in 10.0 mi Calm Calm - N/A   Clear
8:35 PM 30.2 °F - 17.6 °F 60% 30.28 in 10.0 mi Calm Calm - N/A   Clear
8:55 PM 30.2 °F - 17.6 °F 60% 30.28 in 10.0 mi Calm Calm - N/A   Clear
9:15 PM 28.4 °F - 17.6 °F 64% 30.28 in 10.0 mi Calm Calm - N/A   Clear
9:35 PM 28.4 °F - 17.6 °F 64% 30.29 in 10.0 mi Calm Calm - N/A   Clear
9:55 PM 28.4 °F 24.6 °F 17.6 °F 64% 30.29 in 10.0 mi SSW 3.5 mph - N/A   Clear
10:15 PM 28.4 °F - 17.6 °F 64% 30.30 in 10.0 mi Calm Calm - N/A   Clear
10:35 PM 28.4 °F - 15.8 °F 59% 30.30 in 10.0 mi Calm Calm - N/A   Clear
10:55 PM 28.4 °F - 17.6 °F 64% 30.30 in 10.0 mi Calm Calm - N/A   Clear
11:15 PM 28.4 °F - 17.6 °F 64% 30.30 in 10.0 mi Calm Calm - N/A   Clear
11:35 PM 28.4 °F - 15.8 °F 59% 30.30 in 10.0 mi Calm Calm - N/A   Clear
11:55 PM 28.4 °F - 17.6 °F 64% 30.29 in 10.0 mi Calm Calm - N/A   Clear